• In Moldova, Republic
  • List of Countries
  • For 7 days
  • Water Temperature
  • Satellite Maps
  • Weather Map
  • Weather Widgets
  • user-avatar
    Login

    Hourly Weather Brisbane

    Today, 21 June, Thursday

    Time Temperature Precipitation Wind Pressure Humidity
    00:00 +12°C° 0 mm 4 mps 766 mmHg 78%
    01:00 +12°C° 0 mm 4 mps 766 mmHg 79%
    02:00 +12°C° 0 mm 4 mps 766 mmHg 80%
    03:00 +11°C° 0 mm 4 mps 766 mmHg 82%
    04:00 +11°C° 0 mm 4 mps 766 mmHg 82%
    05:00 +11°C° 0 mm 4 mps 766 mmHg 83%
    06:00 +11°C° 0 mm 4 mps 766 mmHg 85%
    07:00 +11°C° 0 mm 4 mps 766 mmHg 86%
    08:00 +13°C° 0 mm 4 mps 766 mmHg 77%
    09:00 +15°C° 0 mm 4 mps 766 mmHg 68%
    10:00 +19°C° 0 mm 4 mps 767 mmHg 58%
    11:00 +20°C° 0 mm 4 mps 766 mmHg 55%
    12:00 +22°C° 0 mm 4 mps 766 mmHg 51%
    13:00 +23°C° 0 mm 4 mps 766 mmHg 47%
    14:00 +22°C° 0.1 mm 4 mps 766 mmHg 51%
    15:00 +21°C° 0.1 mm 4 mps 765 mmHg 55%
    16:00 +21°C° 0.1 mm 4 mps 765 mmHg 59%
    17:00 +19°C° 0.1 mm 4 mps 766 mmHg 67%
    18:00 +17°C° 0.1 mm 4 mps 766 mmHg 76%
    19:00 +15°C° 0.1 mm 4 mps 767 mmHg 84%
    20:00 +14°C° 0 mm 4 mps 767 mmHg 85%
    21:00 +14°C° 0 mm 3 mps 767 mmHg 86%
    22:00 +13°C° 0 mm 3 mps 768 mmHg 87%
    23:00 +13°C° 0 mm 3 mps 768 mmHg 88%

    Tomorrow, 22 June, Friday

    Time Temperature Precipitation Wind Pressure Humidity
    00:00 +13°C° 0 mm 3 mps 768 mmHg 88%
    01:00 +12°C° 0 mm 4 mps 768 mmHg 89%
    02:00 +12°C° 0 mm 4 mps 767 mmHg 90%
    03:00 +12°C° 0 mm 4 mps 767 mmHg 90%
    04:00 +12°C° 0 mm 4 mps 767 mmHg 91%
    05:00 +11°C° 0 mm 4 mps 767 mmHg 91%
    06:00 +11°C° 0 mm 4 mps 768 mmHg 92%
    07:00 +11°C° 0 mm 4 mps 768 mmHg 92%
    08:00 +13°C° 0 mm 4 mps 768 mmHg 83%
    09:00 +15°C° 0 mm 4 mps 768 mmHg 74%
    10:00 +19°C° 0 mm 4 mps 768 mmHg 65%
    11:00 +20°C° 0 mm 4 mps 768 mmHg 60%
    12:00 +21°C° 0 mm 4 mps 767 mmHg 54%
    13:00 +22°C° 0 mm 4 mps 767 mmHg 48%
    14:00 +22°C° 0 mm 4 mps 767 mmHg 50%
    15:00 +21°C° 0 mm 4 mps 766 mmHg 52%
    16:00 +21°C° 0 mm 4 mps 766 mmHg 55%
    17:00 +19°C° 0 mm 4 mps 767 mmHg 63%
    18:00 +17°C° 0 mm 4 mps 767 mmHg 71%
    19:00 +15°C° 0 mm 4 mps 767 mmHg 79%
    20:00 +14°C° 0 mm 3 mps 768 mmHg 80%
    21:00 +14°C° 0 mm 3 mps 768 mmHg 82%
    22:00 +13°C° 0 mm 3 mps 768 mmHg 84%
    23:00 +13°C° 0 mm 3 mps 768 mmHg 84%

    Day after tomorrow, 23 June, Saturday

    Time Temperature Precipitation Wind Pressure Humidity
    00:00 +13°C° 0 mm 3 mps 768 mmHg 85%
    01:00 +12°C° 0 mm 3 mps 768 mmHg 86%
    02:00 +12°C° 0 mm 3 mps 767 mmHg 87%
    03:00 +11°C° 0 mm 3 mps 767 mmHg 88%
    04:00 +11°C° 0 mm 3 mps 767 mmHg 89%
    05:00 +11°C° 0 mm 3 mps 767 mmHg 89%
    06:00 +11°C° 0 mm 3 mps 767 mmHg 89%
    07:00 +10°C° 0 mm 3 mps 767 mmHg 90%
    08:00 +13°C° 0 mm 3 mps 768 mmHg 78%
    09:00 +16°C° 0 mm 3 mps 768 mmHg 66%
    10:00 +19°C° 0 mm 3 mps 768 mmHg 54%
    11:00 +20°C° 0 mm 2 mps 767 mmHg 48%
    12:00 +21°C° 0 mm 2 mps 766 mmHg 41%
    13:00 +23°C° 0 mm 2 mps 765 mmHg 35%
    14:00 +23°C° 0 mm 2 mps 765 mmHg 36%
    15:00 +23°C° 0 mm 2 mps 765 mmHg 37%
    16:00 +21°C° 0 mm 2 mps 765 mmHg 38%
    17:00 +20°C° 0 mm 2 mps 765 mmHg 45%
    18:00 +18°C° 0 mm 2 mps 766 mmHg 51%
    19:00 +16°C° 0 mm 2 mps 766 mmHg 58%
    20:00 +15°C° 0 mm 2 mps 766 mmHg 61%
    21:00 +15°C° 0 mm 2 mps 766 mmHg 65%
    22:00 +14°C° 0 mm 2 mps 767 mmHg 68%
    23:00 +13°C° 0 mm 2 mps 767 mmHg 69%

    24 June, Sunday

    Time Temperature Precipitation Wind Pressure Humidity
    00:00 +13°C° 0 mm 2 mps 766 mmHg 70%
    01:00 +13°C° 0 mm 2 mps 766 mmHg 71%
    02:00 +11°C° 0 mm 3 mps 766 mmHg 71%
    03:00 +11°C° 0 mm 3 mps 766 mmHg 70%
    04:00 +10°C° 0 mm 3 mps 766 mmHg 70%
    05:00 +10°C° 0 mm 3 mps 766 mmHg 70%
    06:00 +10°C° 0 mm 2 mps 766 mmHg 70%
    07:00 +10°C° 0 mm 2 mps 767 mmHg 69%
    08:00 +14°C° 0 mm 2 mps 767 mmHg 62%
    09:00 +17°C° 0 mm 2 mps 767 mmHg 54%
    10:00 +19°C° 0 mm 2 mps 767 mmHg 47%
    11:00 +20°C° 0 mm 2 mps 766 mmHg 44%
    12:00 +21°C° 0 mm 3 mps 765 mmHg 41%
    13:00 +24°C° 0 mm 3 mps 765 mmHg 38%
    14:00 +22°C° 0 mm 3 mps 765 mmHg 41%
    15:00 +21°C° 0 mm 3 mps 765 mmHg 44%
    16:00 +21°C° 0 mm 4 mps 765 mmHg 47%
    17:00 +19°C° 0 mm 4 mps 765 mmHg 57%
    18:00 +18°C° 0 mm 4 mps 766 mmHg 67%
    19:00 +15°C° 0 mm 4 mps 766 mmHg 77%
    20:00 +14°C° 0 mm 4 mps 767 mmHg 79%
    21:00 +14°C° 0 mm 4 mps 767 mmHg 82%
    22:00 +13°C° 0 mm 4 mps 767 mmHg 85%
    23:00 +13°C° 0.1 mm 4 mps 767 mmHg 85%

    25 June, Monday

    Time Temperature Precipitation Wind Pressure Humidity
    00:00 +12°C° 0.1 mm 4 mps 767 mmHg 86%
    01:00 +12°C° 0.1 mm 4 mps 767 mmHg 86%
    02:00 +12°C° 0.1 mm 4 mps 767 mmHg 86%
    03:00 +12°C° 0.1 mm 4 mps 767 mmHg 87%
    04:00 +11°C° 0.1 mm 4 mps 767 mmHg 87%
    05:00 +11°C° 0.1 mm 4 mps 767 mmHg 87%
    06:00 +11°C° 0.1 mm 4 mps 768 mmHg 87%
    07:00 +11°C° 0.1 mm 4 mps 768 mmHg 87%
    08:00 +13°C° 0 mm 4 mps 768 mmHg 78%
    09:00 +15°C° 0 mm 5 mps 768 mmHg 70%
    10:00 +17°C° 0 mm 5 mps 768 mmHg 61%
    11:00 +19°C° 0 mm 5 mps 768 mmHg 58%
    12:00 +20°C° 0 mm 5 mps 767 mmHg 55%
    13:00 +21°C° 0 mm 5 mps 767 mmHg 51%
    14:00 +21°C° 0 mm 5 mps 767 mmHg 54%
    15:00 +20°C° 0 mm 5 mps 767 mmHg 57%
    16:00 +20°C° 0 mm 5 mps 767 mmHg 59%
    17:00 +19°C° 0.1 mm 5 mps 768 mmHg 66%
    18:00 +16°C° 0.1 mm 5 mps 768 mmHg 73%
    19:00 +15°C° 0.1 mm 4 mps 769 mmHg 80%
    20:00 +14°C° 0.2 mm 4 mps 769 mmHg 82%
    21:00 +14°C° 0.2 mm 4 mps 769 mmHg 85%
    22:00 +14°C° 0.2 mm 4 mps 770 mmHg 87%
    23:00 +14°C° 0.3 mm 4 mps 769 mmHg 88%

    26 June, Tuesday

    Time Temperature Precipitation Wind Pressure Humidity
    00:00 +13°C° 0.3 mm 4 mps 769 mmHg 89%
    01:00 +13°C° 0.3 mm 4 mps 769 mmHg 90%
    02:00 +13°C° 0.3 mm 4 mps 769 mmHg 90%
    03:00 +14°C° 0.3 mm 4 mps 769 mmHg 89%
    04:00 +14°C° 0.3 mm 4 mps 769 mmHg 89%
    05:00 +14°C° 0.2 mm 4 mps 770 mmHg 89%
    06:00 +14°C° 0.2 mm 4 mps 770 mmHg 89%
    07:00 +14°C° 0.2 mm 4 mps 770 mmHg 89%
    08:00 +15°C° 0.1 mm 4 mps 770 mmHg 83%
    09:00 +16°C° 0.1 mm 5 mps 771 mmHg 76%
    10:00 +19°C° 0.1 mm 5 mps 771 mmHg 70%
    11:00 +19°C° 0.2 mm 5 mps 770 mmHg 67%
    12:00 +20°C° 0.2 mm 5 mps 770 mmHg 65%
    13:00 +20°C° 0.2 mm 5 mps 769 mmHg 62%
    14:00 +20°C° 0.2 mm 5 mps 769 mmHg 64%
    15:00 +19°C° 0.2 mm 5 mps 769 mmHg 67%
    16:00 +19°C° 0.2 mm 5 mps 769 mmHg 70%
    17:00 +18°C° 0.1 mm 4 mps 769 mmHg 74%
    18:00 +17°C° 0.1 mm 4 mps 770 mmHg 79%
    19:00 +15°C° 0.1 mm 4 mps 770 mmHg 84%
    20:00 +14°C° 0 mm 4 mps 770 mmHg 84%
    21:00 +14°C° 0 mm 4 mps 770 mmHg 84%
    22:00 +14°C° 0 mm 4 mps 770 mmHg 84%
    23:00 +14°C° 0 mm 4 mps 770 mmHg 84%
    Show more